Regional Weather Roundup
Issued by NWS

Home | Current Version | Previous Version | Graphics & Text | Print | Product List | Glossary Off
Versions: 1 2 3 4 5 6 7 8 9 10 11 12 13 14 15 16 17 18 19 20 21 22 23 24 25 26 27 28 29 30 31 32 33 34 35 36 37 38 39 40 41 42 43 44 45 46 47 48 49 50

000
ASUS43 KLSX 270307
RWRMO

WEATHER SUMMARY FOR MISSOURI
NATIONAL WEATHER SERVICE SPRINGFIELD MO
900 PM CST THU FEB 26 2015

NOTE: "FAIR" INDICATES FEW OR NO CLOUDS BELOW 12,000 FEET WITH NO
       SIGNIFICANT WEATHER AND/OR OBSTRUCTIONS TO VISIBILITY.
       CURRENT SKY AND/OR WEATHER CONDITIONS ARE NOT AVAILABLE FOR
       CHILLICOTHE AND FARMINGTON.

MOZ001>031-035>038-043-044-053-054-270400-
...NORTHERN AND WESTERN MISSOURI...

CITY           SKY/WX    TMP DP  RH WIND       PRES   REMARKS
KANSAS CTY INT FAIR       8  -2  63 N8        30.55R WCI  -4
KANSAS C DTWN  CLEAR     12  -2  53 N13       30.57R WCI  -3
LEE`S SUMMIT   CLEAR     12  -1  56 N15       30.53R WCI  -4
ST JOSEPH      CLEAR      7  -2  66 N9        30.59R WCI  -7
CHILLICOTHE      N/A      8  -3  61 NW7       30.57R WCI  -3
KIRKSVILLE     CLEAR      2  -4  76 N7        30.51R WCI -11

$$
MOZ066>068-077>081-088>096-101>105-270400-
...SOUTHWEST MISSOURI...

CITY           SKY/WX    TMP DP  RH WIND       PRES   REMARKS
SPRINGFIELD    CLEAR     17   4  56 N13       30.43R WCI   4
JOPLIN         CLEAR     18   4  54 N9        30.47R WCI   7

$$
MOZ032>034-039>042-045>050-055>058-069>072-270400-
...CENTRAL MISSOURI...

CITY           SKY/WX    TMP DP  RH WIND       PRES   REMARKS
COLUMBIA       CLEAR     11   1  64 N12       30.49R WCI  -3
JEFFERSON CITY CLEAR     14   0  53 N7        30.53R WCI   4
ROLLA          CLOUDY    14   2  58 N10       30.43R WCI   1
SEDALIA        CLEAR     13   1  59 N10       30.53R WCI   0
WARRENSBURG    CLEAR     12   3  67 N7        30.54R WCI   2
OSAGE BEACH    CLEAR     14   1  57 NW5       30.48R WCI   6

$$
MOZ051-052-059>065-270400-
...EAST CENTRAL MISSOURI...

CITY           SKY/WX    TMP DP  RH WIND       PRES   REMARKS
ST LOUIS INTL  PTCLDY    13   1  59 NW9       30.49R WCI   1
SPIRIT OF STL  CLEAR     14   1  56 N12       30.49R WCI   0
ST CHARLES     CLEAR     12   0  58 NW15      30.50R WCI  -4

$$
MOZ072>076-082>087-097>100-106>115-270400-
...SOUTH CENTRAL AND SOUTHEAST MISSOURI...

CITY           SKY/WX    TMP DP  RH WIND       PRES   REMARKS
CAPE GIRARDEAU CLOUDY    21  15  78 N12       30.44  WCI   9
FARMINGTON     MOCLDY    18   7  62 N10       30.43S WCI   6
POPLAR BLUFF   CLOUDY    24  10  55 N16       30.43R WCI  11
WEST PLAINS    CLEAR     17   7  64 N6        30.40R WCI   9

$$



USA.gov is the U.S. government's official web portal to all federal, state and local government web resources and services.